Theta_e
329 330 328 324 326 327 327 328 327 327 327 327 327 326 323 324 323 322 327 328 326 327 326 326 327 327 329 330 330 330 330 330 330 330 331 331 328 327 324 319 315 312 309 307 306 306 306 307 307 307 307 307 307 306 306 305 305 305 305 305 305 305 305 305 305 306 306 306 306 306 306 307 307 307 307 308 308 308 308 308 308 308 309 309 308
329 331 329 325 325 327 328 329 329 328 327 327 328 327 326 325 322 322 326 327 327 328 328 328 328 328 329 329 330 330 330 331 331 331 331 331 330 328 325 323 320 318 316 313 310 308 306 306 306 306 306 306 306 306 306 305 305 305 305 305 305 305 305 305 305 305 305 306 306 306 306 306 306 307 307 307 307 308 308 308 308 308 308 308 309
330 331 331 329 328 329 330 330 330 328 328 328 328 328 328 325 322 323 327 328 327 328 329 328 327 327 328 329 329 329 329 330 331 331 331 331 330 329 326 325 323 321 320 319 317 315 312 308 306 306 305 305 305 305 305 305 305 305 304 304 305 305 304 304 304 304 305 305 305 305 305 305 306 306 307 307 307 307 307 307 307 308 308 308 308
331 331 332 331 330 330 331 330 329 328 328 328 328 329 329 327 324 325 327 328 327 327 327 328 327 327 328 329 329 328 329 329 330 331 331 331 331 330 328 326 325 324 323 322 322 321 320 316 311 308 307 306 306 306 305 305 305 304 304 304 304 305 305 304 304 304 304 304 305 304 305 305 305 306 306 307 307 307 307 307 308 307 307 307 308
330 331 331 331 331 331 331 329 328 328 328 328 328 328 328 328 327 326 327 327 327 327 327 328 327 327 327 328 328 328 328 328 328 329 330 331 331 331 329 328 327 326 325 324 323 322 323 323 320 316 311 309 308 307 308 307 307 306 305 305 304 304 304 304 304 304 304 304 304 304 304 304 304 305 305 306 307 307 308 308 308 308 307 307 307
329 330 330 330 331 331 328 326 327 326 327 327 327 327 328 329 328 327 326 326 327 328 328 328 327 327 326 327 327 327 327 327 328 328 327 329 330 331 330 329 328 328 326 325 323 322 322 324 325 324 320 316 313 311 310 311 310 310 309 308 306 305 304 304 303 304 304 304 304 304 304 304 304 304 305 305 306 307 307 308 308 308 308 308 307
329 329 329 330 330 329 326 325 326 326 326 326 325 326 327 328 329 328 327 326 327 328 328 328 328 327 326 326 326 326 326 327 327 326 326 326 328 329 329 328 328 328 327 326 325 324 324 324 324 324 324 323 321 319 317 315 314 314 313 312 310 308 306 304 303 303 303 303 304 303 304 304 303 304 304 304 305 306 307 307 308 308 308 308 308
326 327 328 329 330 328 326 327 328 327 327 327 326 326 326 327 328 329 328 327 327 327 328 328 327 327 327 326 326 325 327 327 327 326 326 326 326 327 327 327 327 327 327 327 326 326 326 326 325 324 324 323 323 323 322 321 319 318 317 315 313 311 309 308 305 304 304 303 303 303 303 303 303 303 304 304 304 305 306 307 308 308 309 309 308
325 325 327 329 329 327 325 326 327 327 326 327 327 327 327 327 328 328 328 327 327 327 327 327 327 328 328 327 326 326 327 327 328 328 327 326 327 327 327 327 327 327 327 326 326 325 326 326 327 326 325 323 323 324 324 324 323 323 320 316 315 313 311 310 309 307 306 304 304 303 303 303 303 303 304 304 304 304 305 306 307 308 309 309 309
327 327 327 328 328 327 327 326 326 326 326 327 327 328 328 328 328 327 327 327 328 328 327 327 327 327 328 328 327 326 327 326 326 327 327 328 328 328 328 328 327 327 327 327 326 325 325 325 327 327 326 324 324 325 326 325 326 326 323 319 317 317 314 312 312 311 309 307 306 304 304 304 304 305 305 305 305 305 305 305 306 308 309 309 309
328 328 328 328 328 329 329 328 327 326 325 324 326 328 328 328 328 327 327 327 327 327 327 327 327 327 328 328 326 325 325 325 324 324 325 327 327 327 327 327 328 328 328 327 327 326 325 325 326 327 326 326 326 327 327 326 326 327 326 324 320 319 318 316 315 314 313 312 311 309 309 308 308 309 309 308 307 306 305 305 306 307 308 309 309
328 329 328 329 329 328 328 327 325 324 323 323 326 327 328 328 328 328 328 328 327 326 326 326 326 327 326 325 324 324 323 324 324 323 324 325 325 325 325 325 326 327 327 327 327 327 326 326 326 326 326 327 327 328 328 327 327 326 326 325 323 321 321 320 319 318 316 316 315 315 314 314 313 312 311 310 308 308 307 307 306 307 308 309 309
328 328 328 328 327 326 325 324 323 323 323 324 326 328 328 328 328 327 328 327 327 326 326 324 324 325 324 323 323 323 324 324 324 323 322 322 322 321 321 322 324 325 325 326 327 327 327 327 327 326 326 327 327 328 328 328 328 327 326 325 324 324 325 325 323 321 319 318 318 317 317 316 315 314 313 312 311 311 311 310 308 308 308 308 309
326 326 326 326 325 324 324 324 323 323 323 323 325 327 327 327 328 328 327 328 327 326 325 324 324 324 323 323 324 323 323 322 322 322 321 320 319 319 319 319 321 323 325 325 326 327 327 327 326 327 327 327 328 328 328 328 327 327 326 325 325 325 326 328 327 324 321 320 319 319 318 317 316 316 315 316 316 316 314 313 311 309 308 308 309
325 324 324 323 322 323 322 322 321 321 321 320 323 325 326 327 327 327 327 327 326 326 325 324 325 325 324 325 324 323 322 321 321 321 320 319 318 318 318 319 319 320 323 325 325 326 326 326 326 328 328 328 328 327 327 328 327 327 327 326 325 325 326 327 328 327 326 323 322 319 319 318 317 318 318 318 319 318 317 316 314 311 309 308 308
324 324 323 322 321 321 320 319 319 319 320 320 322 325 326 326 326 327 328 327 327 326 325 325 325 326 326 325 324 322 322 322 322 322 321 319 319 318 318 319 320 320 321 323 324 325 325 325 326 327 327 327 328 327 327 327 327 328 328 327 327 327 326 326 326 327 328 328 326 323 321 320 319 319 320 321 321 320 320 319 317 315 312 310 309
316 318 317 318 318 318 318 318 317 319 321 321 323 324 325 325 326 326 327 327 326 326 325 325 325 325 325 325 324 323 323 323 322 322 321 320 320 320 319 318 319 320 321 322 323 323 324 324 324 324 324 325 326 326 326 326 327 327 328 328 328 328 328 327 327 326 326 327 328 327 326 324 322 320 321 322 323 323 324 323 321 319 316 314 312
310 311 312 315 317 316 316 315 315 318 320 321 322 323 324 325 325 326 327 327 326 325 325 325 325 325 324 323 322 322 323 322 321 320 320 320 320 320 320 319 318 318 319 320 321 321 321 321 321 321 321 321 322 322 322 323 325 327 327 327 328 328 328 328 328 327 326 326 327 327 327 327 326 324 323 323 324 325 326 325 325 323 321 319 317
313 315 316 317 318 317 316 314 315 318 319 320 321 322 323 323 324 325 325 324 324 324 324 324 324 323 322 321 321 321 322 321 320 320 319 319 319 320 320 321 320 320 319 319 319 319 320 320 320 321 320 318 318 320 321 320 322 326 328 328 328 328 327 328 328 328 328 327 327 327 327 328 328 327 325 324 325 326 326 326 326 326 324 323 322
316 318 319 319 318 318 317 315 317 320 319 320 321 320 320 322 322 322 322 321 321 321 322 323 322 321 321 320 320 321 321 320 319 318 318 318 320 320 320 320 320 320 320 320 320 320 320 319 320 321 320 318 317 319 320 321 323 326 328 327 327 328 328 328 328 328 328 328 328 327 327 327 327 327 327 326 326 326 327 327 327 327 327 326 325
316 317 318 318 318 317 317 317 319 321 320 320 320 319 320 321 321 321 320 319 319 320 320 321 321 321 321 321 320 320 319 319 318 318 319 318 316 314 312 311 312 313 314 316 317 318 317 316 318 319 319 318 318 317 318 319 321 325 326 325 325 327 327 327 328 328 328 328 329 329 327 327 327 326 327 327 326 327 328 327 328 328 328 328 327
315 316 317 317 317 316 316 316 318 319 319 319 318 316 317 320 321 321 320 320 319 319 320 320 320 321 321 320 319 318 318 318 319 319 319 314 309 307 306 305 308 311 313 313 313 314 314 315 315 316 317 318 318 317 316 315 317 321 323 323 323 325 326 327 327 328 328 328 329 329 327 327 328 327 328 328 327 327 327 327 328 328 329 328 328
314 315 316 316 315 315 314 315 316 317 317 317 317 317 317 318 319 319 319 319 318 317 319 320 319 319 319 318 318 317 316 316 318 319 316 309 305 304 304 305 308 313 315 314 314 315 315 316 316 316 317 317 318 317 316 315 315 316 319 320 321 322 325 326 326 326 326 326 326 327 326 326 328 328 328 328 327 328 327 327 328 328 328 329 329
313 314 314 314 313 312 311 311 312 312 312 312 313 315 316 316 317 318 318 317 316 317 319 319 318 316 313 312 312 312 311 311 313 313 309 305 304 304 304 304 306 312 315 315 315 316 316 317 317 317 317 317 318 318 317 316 315 315 315 317 320 322 324 325 325 325 325 325 325 327 328 327 328 328 328 328 328 328 328 327 327 327 328 329 328
309 310 310 309 308 307 307 307 307 306 306 306 306 307 309 310 311 313 314 313 313 314 315 313 311 308 306 306 306 307 307 307 307 306 304 303 303 303 303 303 305 311 315 314 315 315 316 316 317 316 316 317 318 319 319 318 316 315 314 315 320 323 324 325 325 325 325 325 326 327 327 326 326 326 326 327 326 327 327 327 327 328 327 327 327
306 306 306 306 306 306 306 306 306 305 305 305 305 305 305 305 305 306 307 307 308 308 308 307 305 305 304 305 305 304 304 304 303 303 302 302 302 302 302 302 302 308 313 314 314 314 314 314 315 315 315 315 316 317 318 319 318 317 317 317 320 323 325 325 324 324 324 325 325 325 325 324 324 324 324 324 324 324 324 325 325 326 326 326 327
305 305 305 305 305 306 305 306 306 306 306 306 305 305 305 305 305 305 305 305 305 305 305 305 305 305 304 304 304 304 303 303 302 303 303 302 303 302 302 302 302 304 309 312 312 312 312 310 311 313 313 313 313 314 315 315 316 317 317 319 320 321 322 322 322 322 322 323 323 323 323 323 323 323 323 323 322 321 321 321 322 322 323 324 325
305 305 305 305 305 305 305 305 305 305 306 306 305 306 305 305 305 305 304 304 305 304 304 304 304 304 304 303 303 303 303 303 303 303 303 303 303 303 303 303 303 303 305 306 307 307 307 306 307 308 308 308 309 309 309 310 312 314 314 314 315 316 316 317 318 320 321 322 322 322 322 323 322 322 322 321 321 320 320 319 320 320 320 321 321
306 306 306 306 305 305 305 305 305 305 305 305 305 305 305 305 305 305 305 304 304 304 304 304 304 304 304 304 304 304 304 305 304 304 304 304 305 305 305 306 306 305 305 306 305 305 305 305 305 305 305 304 304 304 305 306 307 309 309 310 313 315 317 318 319 320 321 321 321 321 321 321 321 321 321 321 320 319 318 317 318 318 318 318 318
307 306 307 307 307 307 306 306 306 305 305 305 305 305 305 305 305 305 305 305 305 306 305 305 305 305 306 306 306 306 307 307 306 306 305 306 307 307 307 308 308 307 307 307 307 306 306 306 305 305 305 304 304 303 303 302 303 303 304 306 308 312 315 316 317 318 319 319 319 319 319 319 319 319 319 319 319 317 316 316 317 316 316 315 315
307 307 307 308 308 309 308 308 308 307 307 307 306 306 306 306 307 307 307 307 307 307 307 307 307 307 307 307 307 307 309 308 308 308 307 308 308 308 308 308 308 307 307 307 307 307 306 306 306 305 305 304 304 303 303 302 302 301 302 302 303 304 306 307 308 310 311 313 314 315 316 316 317 317 317 318 317 316 315 315 315 316 316 315 315
307 307 308 308 308 309 309 309 309 309 309 309 308 308 308 307 308 307 308 308 308 308 308 308 308 307 308 308 308 308 308 309 309 309 310 309 309 309 309 309 308 308 307 307 307 307 306 306 306 305 305 305 304 304 304 303 302 301 302 302 302 302 303 303 304 304 305 306 307 308 309 310 311 312 313 314 315 315 316 315 315 316 315 315 315
309 308 308 308 308 308 309 309 310 309 309 309 309 309 308 308 308 308 308 308 308 308 308 308 308 308 308 308 308 308 308 308 309 309 310 310 311 310 310 309 309 308 308 307 307 308 308 307 307 306 306 306 305 305 305 304 303 303 302 302 302 303 303 304 304 304 304 305 306 306 307 307 307 308 309 310 311 312 313 314 315 315 314 314 314
313 312 311 310 310 309 309 310 311 311 311 311 311 310 310 310 310 310 310 310 310 310 309 308 308 308 308 308 308 307 307 308 308 308 309 310 310 310 310 310 309 308 308 308 308 308 309 308 307 307 306 306 305 305 305 305 304 303 302 302 303 303 304 304 305 305 305 306 306 307 307 308 308 309 309 309 309 310 310 310 311 311 312 312 312
315 315 314 314 313 312 312 314 315 315 315 315 314 314 314 314 315 315 315 315 315 314 314 313 312 311 311 311 310 309 308 307 308 308 308 309 309 310 310 309 309 308 308 309 309 308 309 309 308 307 307 305 304 304 304 303 303 303 302 302 302 302 303 304 305 306 306 306 307 307 308 308 309 309 309 309 309 310 310 310 310 310 310 310 311
316 316 316 315 315 315 315 316 316 316 316 316 316 316 316 316 316 316 317 317 317 317 317 316 316 315 315 315 314 313 311 309 308 308 308 308 308 309 310 309 309 309 309 310 310 309 309 309 308 307 306 304 302 302 302 302 302 302 302 301 301 301 302 303 304 305 306 306 307 307 307 308 308 309 309 309 309 309 310 310 310 310 310 310 310
316 316 316 316 316 315 316 316 317 316 316 316 316 317 316 317 317 316 317 317 317 317 317 317 317 317 317 317 316 316 315 313 310 309 309 308 308 309 309 310 310 310 311 311 311 310 309 309 308 306 305 303 301 301 301 301 302 302 302 302 301 301 301 301 302 303 304 305 305 306 306 307 307 308 308 307 307 307 308 310 310 311 311 311 311
316 316 316 316 316 316 316 317 317 317 317 317 317 317 316 316 316 316 317 317 317 317 317 317 317 317 317 317 316 316 316 315 313 311 311 310 310 309 309 309 310 310 311 311 311 310 310 308 306 305 303 303 302 301 300 300 300 301 302 302 301 301 301 301 301 301 301 302 302 303 303 304 305 306 306 305 305 305 306 308 309 310 310 310 311
317 317 317 316 316 316 315 316 316 317 317 317 317 317 317 316 315 315 316 317 317 317 316 316 316 317 317 317 317 316 316 316 315 314 313 313 311 310 309 309 309 310 310 310 310 310 309 307 305 304 303 302 301 301 300 299 299 299 300 301 302 301 301 301 301 301 300 300 300 300 300 301 301 302 302 302 302 304 306 308 308 309 309 310 310
317 317 317 316 316 315 315 315 316 316 317 317 318 317 317 316 314 313 314 315 316 316 315 315 316 316 316 316 316 316 316 315 315 314 314 313 312 311 309 309 309 309 309 310 310 309 307 306 304 303 302 301 300 300 300 300 300 300 300 299 300 301 301 300 300 300 300 300 300 300 300 300 300 300 300 300 301 303 306 308 308 308 309 309 310
317 316 315 316 317 316 315 315 315 315 316 317 318 318 317 316 313 312 313 314 315 316 315 315 316 316 317 317 317 316 315 315 314 313 313 312 312 311 310 309 309 308 309 310 309 308 306 305 303 303 302 302 301 300 300 300 300 299 299 298 298 298 299 300 299 299 299 299 300 300 300 300 300 300 300 300 301 302 305 307 308 308 308 309 309
315 314 314 315 316 316 315 314 314 314 316 317 318 318 317 316 314 314 314 315 315 316 316 316 316 316 317 317 317 316 315 314 313 312 312 311 311 310 310 309 308 309 309 309 308 307 305 304 303 302 302 302 301 300 300 299 298 298 298 297 297 297 298 299 300 299 299 298 299 300 300 299 299 300 300 300 300 300 302 304 305 307 308 308 308
314 314 315 315 316 315 315 315 315 316 317 318 318 317 317 316 315 315 315 315 315 316 316 317 316 317 317 317 318 317 315 314 313 312 311 310 310 310 309 309 308 308 308 308 307 305 304 304 303 303 302 302 301 300 299 299 298 298 297 297 296 297 296 297 298 299 299 298 298 299 299 299 298 299 299 299 299 299 299 300 301 303 304 306 306
315 316 316 317 316 315 315 316 316 316 317 316 316 316 315 315 315 315 315 315 316 316 317 317 317 318 317 317 318 317 316 314 313 312 310 310 309 310 310 309 308 307 307 307 306 305 304 304 304 303 302 301 301 300 299 299 298 298 297 296 296 296 296 296 296 297 297 297 297 298 298 298 298 298 299 298 298 298 298 299 299 299 300 301 302
317 317 317 316 315 315 314 315 315 316 316 315 315 315 315 315 316 315 315 314 313 313 314 315 316 318 318 318 318 317 315 313 312 311 310 309 310 311 310 309 308 307 306 306 306 305 304 304 303 302 302 301 300 300 299 299 298 297 297 296 296 295 295 295 295 296 296 296 296 297 298 298 297 297 298 298 298 298 298 298 298 298 299 299 299
315 316 315 315 314 314 313 314 315 315 315 315 315 315 314 314 313 311 309 307 306 306 306 308 312 315 317 317 317 316 314 313 312 311 310 309 310 310 309 308 307 307 306 305 306 305 304 304 303 302 301 301 300 300 299 299 298 298 297 296 296 295 295 295 295 296 296 296 296 296 297 298 297 297 297 298 298 298 297 297 298 298 299 299 299
314 314 314 314 314 314 314 314 314 314 313 313 313 312 310 308 306 305 303 302 301 302 303 306 309 313 315 316 316 315 313 312 311 310 309 309 310 309 308 307 306 306 305 305 305 305 304 303 302 301 301 300 300 299 299 299 298 297 297 296 296 295 295 295 295 295 296 296 295 295 296 297 297 296 296 297 298 297 297 297 297 297 298 299 299
313 313 313 314 314 314 314 314 313 312 311 310 309 307 306 305 304 303 302 302 302 302 302 304 307 311 314 315 315 314 312 312 310 309 308 309 309 309 308 306 305 305 304 305 305 304 303 302 301 301 300 300 300 299 299 298 298 297 296 295 295 294 294 294 295 295 296 296 295 295 295 295 296 296 296 296 296 297 297 296 296 297 299 300 301
311 312 312 312 312 311 310 309 308 308 307 306 306 305 305 305 305 305 304 304 303 303 303 303 304 309 312 314 314 313 312 312 310 308 308 309 309 308 306 305 305 305 305 305 304 304 303 301 301 301 300 300 299 299 298 297 296 295 295 294 294 294 294 294 294 295 295 295 295 295 294 294 294 294 295 295 295 296 296 295 297 300 301 301 301
308 308 308 307 306 305 305 304 305 306 306 307 307 307 307 307 307 307 307 306 305 305 304 304 305 308 311 312 312 312 311 310 309 308 308 308 307 306 305 305 306 305 305 304 303 302 302 301 301 300 299 299 298 297 296 295 294 294 294 294 294 294 294 293 293 293 294 294 294 294 294 294 294 293 294 294 294 295 295 295 298 301 301 300 300
304 304 303 303 303 304 304 304 305 306 307 309 309 309 308 309 309 309 309 308 308 307 305 306 308 309 310 310 310 310 309 309 308 308 307 307 306 305 305 306 305 305 304 303 302 302 301 301 300 299 298 297 296 295 294 294 294 294 294 294 293 293 293 292 292 292 292 293 293 293 293 293 293 293 293 293 294 294 294 294 296 299 299 298 298
Wind_Speed
11 10 9 8 8 8 8 8 8 7 7 6 6 6 7 8 11 14 14 12 12 12 14 15 14 12 10 9 9 8 7 5 5 5 4 4 3 4 6 7 7 7 7 6 5 4 3 3 4 5 5 5 6 6 6 6 5 6 6 5 4 3 3 3 3 3 2 3 3 4 4 4 4 5 6 7 7 8 8 8 8 9 9 9 10
12 11 11 10 10 10 8 8 9 8 8 7 7 7 7 8 11 14 13 11 11 12 13 12 11 10 10 8 8 7 6 6 7 7 6 5 4 4 5 7 7 6 6 5 4 4 3 2 2 3 4 6 7 7 8 8 7 6 6 6 6 5 4 4 4 3 3 3 3 3 3 3 3 4 4 5 6 6 7 7 7 8 8 8 8
13 12 12 11 12 11 9 8 8 8 9 8 8 8 8 9 12 14 12 10 11 12 12 11 9 8 7 7 6 6 6 6 7 8 8 7 6 5 5 6 6 6 5 4 3 3 3 2 1 0 1 3 5 6 7 8 7 7 6 6 6 6 5 4 4 4 3 3 3 3 3 3 2 2 3 3 4 5 6 6 7 7 7 7 7
14 13 13 13 12 12 10 8 8 9 10 10 10 10 9 10 13 13 12 11 10 11 11 10 9 8 7 7 7 6 6 6 6 7 8 8 7 6 6 5 6 5 5 5 4 4 3 2 2 1 2 2 3 3 4 5 6 6 5 4 4 5 6 6 5 5 4 4 4 4 3 3 2 2 2 2 3 3 4 5 5 6 6 6 6
14 14 14 13 12 12 10 8 9 10 10 10 11 11 10 11 13 13 13 12 11 10 10 9 10 10 9 9 8 8 7 6 6 6 6 7 8 8 7 5 4 5 5 5 4 4 4 3 3 2 1 2 2 2 3 3 4 4 4 3 3 4 5 6 7 7 6 5 5 4 4 3 3 3 3 3 2 2 3 3 4 4 5 5 5
14 14 14 13 12 11 9 8 10 10 10 10 10 10 10 10 12 13 12 12 12 11 10 11 12 13 13 12 11 10 10 8 7 6 6 6 7 7 6 4 3 4 4 3 2 2 2 2 3 2 1 1 2 3 3 3 4 4 4 3 2 3 5 6 7 8 8 7 7 6 5 5 4 4 4 4 3 3 2 2 2 3 4 4 4
14 14 13 12 11 10 9 9 10 10 9 9 9 9 9 9 10 12 11 11 11 11 11 13 14 14 15 15 14 12 11 10 9 8 8 7 7 5 4 4 4 4 4 2 1 1 1 1 1 1 1 1 1 2 3 4 4 4 4 3 3 3 4 5 6 7 8 8 8 8 7 6 5 5 5 5 5 4 3 3 2 2 2 3 4
14 14 13 12 11 10 10 11 10 9 9 9 9 9 9 9 10 11 11 10 11 11 12 13 14 15 15 15 15 14 11 10 10 10 9 8 7 7 6 7 7 6 6 5 3 2 1 1 1 1 1 1 2 2 3 4 4 4 4 4 3 3 4 5 5 7 8 8 9 9 8 7 6 6 6 6 6 6 5 4 3 2 1 2 3
14 14 13 12 11 11 11 11 10 9 8 9 9 9 10 10 9 10 10 10 11 12 12 12 13 14 15 15 15 15 13 12 12 11 10 9 8 8 8 9 9 10 9 9 7 6 5 4 3 3 3 3 4 4 4 5 5 6 5 4 3 3 4 4 5 5 6 7 8 8 8 7 7 7 7 7 7 7 6 5 4 3 2 1 1
13 14 14 12 12 11 10 10 10 9 8 9 10 10 11 10 10 10 10 11 12 13 13 13 13 14 15 14 13 14 14 14 14 11 10 10 9 10 10 10 11 11 11 11 11 10 9 8 6 5 5 5 5 5 6 6 7 7 7 5 4 4 4 4 4 4 5 5 6 6 7 7 7 7 7 7 7 7 6 5 5 4 3 2 1
11 13 13 13 12 11 9 9 10 10 9 9 10 10 10 11 11 10 11 13 13 12 12 12 13 14 13 12 12 13 14 13 11 7 7 8 9 9 10 11 12 13 13 13 12 12 12 12 10 8 7 7 7 7 7 8 7 7 8 8 6 6 5 4 3 4 4 4 4 4 5 6 6 6 6 6 7 6 6 5 5 4 4 3 2
9 10 11 12 13 11 9 9 9 9 9 9 10 10 11 11 11 12 12 13 14 12 12 13 14 14 13 12 11 11 12 11 8 7 6 7 8 9 9 11 13 13 14 14 14 14 14 14 13 11 9 8 8 8 8 8 8 8 8 9 9 8 6 5 5 5 5 4 3 3 4 4 5 5 5 5 5 4 4 4 5 5 4 4 3
10 11 11 12 12 11 9 10 10 10 9 10 10 11 12 12 12 13 13 15 15 15 15 14 14 14 13 10 7 7 8 8 7 7 6 6 7 8 10 12 13 13 13 14 15 15 15 15 14 14 12 11 10 10 9 9 9 10 10 10 9 8 8 8 8 7 7 6 6 5 4 4 4 4 4 4 3 3 3 3 4 4 4 4 4
12 12 12 10 10 9 9 10 10 9 10 10 11 12 12 13 13 14 14 15 15 14 14 13 12 12 11 8 5 5 6 6 6 5 4 3 4 6 8 11 13 13 11 11 11 13 15 16 16 15 14 13 12 11 11 11 11 10 11 11 10 9 9 11 11 9 7 6 7 7 6 5 4 4 4 3 3 2 2 2 2 3 4 4 5
11 11 10 8 7 7 7 7 7 7 8 9 10 11 12 12 12 12 13 14 13 13 14 14 13 11 9 7 6 6 5 3 2 2 2 2 3 4 6 8 10 11 10 9 9 11 13 15 16 16 14 14 14 14 14 14 13 12 12 12 11 10 10 11 13 13 11 8 7 7 6 5 5 5 5 4 4 3 3 2 2 2 3 4 4
9 8 7 6 6 6 6 6 5 6 6 7 9 10 11 11 10 10 11 11 12 12 13 14 13 10 6 4 5 5 3 2 4 3 2 2 3 4 5 5 6 7 8 8 9 11 11 13 14 13 13 14 14 15 17 16 16 14 14 14 14 13 12 12 13 14 15 13 11 9 7 6 6 7 7 6 5 4 3 3 3 3 3 4 4
10 10 9 8 8 7 6 6 6 6 6 7 8 9 10 10 10 9 10 10 10 11 10 11 11 9 6 3 3 2 3 5 5 4 3 4 4 4 4 4 3 3 5 7 8 10 12 13 14 13 13 13 13 14 16 16 15 15 15 16 17 17 16 14 14 14 15 16 15 14 12 10 9 9 9 8 7 6 5 4 5 5 5 5 4
9 9 8 8 8 8 7 6 6 7 7 7 7 7 7 8 9 8 9 9 9 9 9 10 10 8 6 5 4 3 4 7 6 5 5 5 4 4 4 3 2 2 3 5 6 8 10 12 12 12 12 12 12 12 13 15 14 15 16 18 19 19 17 16 16 17 16 18 18 17 16 15 14 12 12 11 10 9 8 7 7 7 7 6 6
8 7 7 8 7 7 6 5 6 7 7 6 7 6 6 6 7 7 7 7 7 6 6 8 8 5 3 5 6 6 7 8 8 8 7 5 5 6 5 4 3 3 3 4 5 5 7 9 10 10 10 11 12 13 15 16 16 15 15 18 20 19 18 17 18 19 19 20 20 20 19 17 17 16 15 13 13 12 11 10 9 9 9 8 8
9 8 8 8 7 6 4 3 5 6 6 6 5 5 4 3 4 4 4 4 4 4 4 4 5 4 4 5 6 6 7 8 9 8 7 5 5 5 3 3 3 4 4 4 4 5 5 7 7 8 9 10 10 11 13 16 17 15 15 18 20 19 19 19 19 20 21 21 22 22 22 21 20 19 18 16 15 16 15 14 13 12 12 11 10
10 9 8 7 6 5 4 4 5 5 5 4 4 2 2 2 2 2 2 1 1 2 3 4 4 4 4 3 4 5 6 6 6 5 4 4 5 6 6 5 4 3 4 5 5 6 6 6 6 7 8 9 9 9 10 14 15 15 15 16 16 17 17 17 19 20 21 22 22 23 24 24 24 22 20 20 20 20 20 18 16 16 17 16 14
9 9 8 7 6 4 4 4 6 6 5 4 3 1 2 3 4 4 5 4 4 2 0 1 1 1 1 1 1 2 3 4 4 2 3 6 9 9 9 9 9 7 4 3 2 3 4 4 5 5 6 8 8 8 8 10 13 14 15 15 15 15 15 15 17 18 21 22 22 22 20 21 24 24 23 23 23 23 22 21 20 19 19 18 17
9 10 9 7 6 4 3 4 4 4 3 3 2 2 2 3 4 3 4 4 4 5 5 4 4 3 2 1 0 1 2 3 3 3 6 9 10 9 8 8 8 8 7 6 6 4 2 1 0 1 2 4 6 8 7 8 11 11 12 13 14 14 14 15 14 13 15 17 17 16 13 15 20 23 23 23 23 23 24 24 22 20 19 18 18
11 11 10 8 6 4 3 4 4 3 3 3 3 3 3 3 3 3 3 3 3 4 4 4 4 2 0 1 2 2 3 4 4 6 8 8 8 8 8 6 6 7 7 7 8 7 6 5 5 4 4 3 2 4 6 8 11 12 11 11 11 11 11 10 8 7 9 10 11 10 8 10 13 17 20 21 23 24 25 26 25 22 21 20 19
11 11 10 9 7 7 7 7 8 8 8 7 7 6 5 5 5 5 4 4 4 4 3 2 1 1 1 1 2 2 3 4 5 6 6 6 6 7 7 6 5 7 7 6 6 6 6 6 6 6 5 5 5 4 3 4 8 12 13 12 11 10 8 6 5 5 6 7 8 8 8 9 9 11 14 15 17 19 20 22 23 21 21 20 20
11 11 11 10 10 9 9 10 11 11 11 11 12 11 10 9 8 7 6 5 5 4 4 3 2 1 1 1 1 1 2 3 3 4 4 5 5 6 6 5 5 5 5 5 4 3 3 4 4 4 4 4 5 5 4 3 4 6 11 14 12 10 8 8 6 5 7 7 7 8 9 9 8 8 10 10 11 11 11 13 15 15 15 15 16
11 12 11 11 11 10 10 10 11 11 10 11 11 11 11 10 10 8 8 7 6 5 5 4 3 2 2 2 1 1 2 2 3 3 4 4 5 6 7 6 6 5 5 4 3 1 2 3 3 3 5 5 5 6 6 5 5 6 9 11 10 8 9 9 7 6 8 9 8 8 9 9 9 8 8 9 9 8 8 8 10 11 11 12 13
13 13 13 12 12 12 12 12 12 11 11 10 10 10 10 9 9 8 7 7 7 6 5 5 5 4 4 3 3 3 3 3 4 4 5 6 7 7 8 8 7 7 6 4 2 2 5 6 4 5 7 8 8 8 8 8 8 8 9 10 8 6 8 8 7 8 9 10 10 10 9 10 10 9 8 8 9 9 10 10 11 12 12 12 13
15 14 15 14 14 14 14 14 13 12 12 11 10 10 10 9 9 9 9 9 9 8 7 7 7 6 6 5 5 4 5 6 7 7 7 9 9 9 9 10 10 9 8 7 6 6 9 9 8 9 10 10 10 10 10 11 11 11 11 11 11 10 10 11 11 11 12 12 12 12 12 12 12 12 12 12 12 13 14 15 15 15 15 15 14
16 16 16 15 15 15 15 14 14 13 12 12 12 11 11 10 10 10 10 10 9 9 9 8 7 7 6 6 5 5 7 8 8 8 8 9 9 10 10 11 11 11 11 11 10 10 11 12 12 13 13 13 13 12 12 12 12 12 13 13 14 15 15 15 15 15 16 16 16 15 15 14 14 14 15 15 15 15 16 17 17 16 16 15 15
17 17 16 16 16 15 15 15 14 13 13 12 12 12 12 11 10 10 9 9 8 8 8 7 6 5 5 5 5 5 6 7 7 7 7 8 8 9 10 10 11 12 12 13 13 13 13 13 14 16 16 16 15 14 13 12 12 12 12 13 13 14 14 15 15 16 16 17 17 17 17 17 17 17 17 17 18 18 18 18 18 17 16 15 14
17 17 16 15 15 14 14 14 14 14 13 12 12 11 11 10 10 9 8 7 6 6 5 4 4 3 2 2 3 3 3 4 4 5 5 6 6 7 8 9 10 11 12 13 14 14 14 14 16 16 16 17 16 16 14 13 12 11 10 10 11 11 11 11 11 12 12 12 13 14 14 15 16 16 17 18 18 19 20 20 20 19 18 17 16
17 16 14 14 13 12 12 12 12 12 12 12 11 11 10 10 9 9 8 7 6 5 3 2 1 1 0 1 1 1 1 1 1 2 3 3 4 5 6 7 8 9 10 12 14 14 14 15 16 16 17 17 17 16 16 15 13 12 11 10 10 9 9 8 8 8 8 8 9 9 10 10 11 13 14 15 16 18 19 20 21 21 20 19 18
15 14 13 12 12 12 11 10 10 10 11 11 11 11 10 9 9 8 8 7 6 5 4 3 2 2 2 3 4 4 4 4 4 4 3 4 4 3 4 6 7 8 10 11 13 15 15 15 16 17 18 18 18 17 17 17 16 15 15 14 13 11 9 8 7 7 7 7 7 7 8 8 9 10 11 12 13 15 16 17 19 20 21 21 20
15 14 13 11 11 11 10 10 10 10 10 10 10 9 8 7 6 6 6 6 6 5 4 3 2 2 3 4 6 6 6 6 7 6 6 6 6 5 5 6 7 8 10 11 13 15 16 16 17 19 20 20 20 19 19 18 18 17 17 16 15 14 13 12 10 9 8 8 8 8 8 9 9 10 10 11 12 13 14 15 16 16 18 19 20
18 16 15 14 12 12 11 10 10 10 9 9 8 7 5 4 4 3 4 3 3 4 3 2 2 2 3 4 5 7 7 8 9 8 8 8 8 8 7 7 8 8 9 11 13 15 17 18 18 19 21 21 21 20 20 19 18 17 17 17 17 16 16 15 15 14 13 11 11 11 11 11 11 12 12 13 14 14 14 15 15 15 16 17 18
23 21 19 17 16 14 12 11 10 10 9 8 7 5 3 4 5 6 6 6 5 5 5 4 4 5 5 5 6 7 8 8 9 10 10 10 10 10 10 9 9 10 10 12 14 15 16 18 18 19 20 21 20 20 21 20 19 18 18 17 18 18 17 17 17 17 17 16 15 15 15 14 14 14 15 15 16 17 16 16 16 15 15 16 17
26 24 22 21 20 18 16 14 13 11 10 8 7 7 6 7 9 11 11 10 9 9 10 9 8 8 9 9 9 10 10 9 9 10 11 11 11 12 12 12 11 11 12 13 14 15 16 17 18 19 19 20 20 21 21 22 22 22 21 20 19 19 19 18 17 17 18 19 20 20 20 19 18 18 18 19 20 19 18 17 17 16 16 17 18
30 29 25 25 25 23 21 18 16 14 12 11 11 10 10 11 14 15 15 14 14 14 14 13 13 13 12 12 13 14 14 13 12 12 12 12 12 12 13 13 12 13 13 14 15 16 16 17 17 18 19 20 21 21 22 22 22 22 23 23 22 20 21 21 20 19 19 20 21 21 22 22 22 22 22 22 22 21 20 19 18 17 16 17 18
30 28 25 25 25 25 22 19 16 15 14 15 14 14 13 15 17 17 16 15 15 16 17 16 16 17 16 16 17 17 17 17 15 14 14 13 13 13 13 13 13 13 14 16 17 17 16 17 17 18 19 20 21 21 22 22 22 22 24 26 26 25 24 24 24 24 23 23 23 22 22 23 24 24 24 23 23 22 21 21 21 19 17 16 16
26 24 25 27 27 26 23 18 16 15 15 16 17 17 16 17 18 17 16 17 18 19 19 19 19 18 18 19 20 20 21 20 19 18 17 15 15 15 15 14 14 14 15 17 18 17 17 17 18 18 19 20 21 22 22 23 24 25 26 28 28 28 28 27 26 26 25 26 26 24 23 24 24 24 24 24 24 23 23 23 24 22 20 18 17
28 27 27 27 28 27 24 21 20 19 17 18 19 19 20 21 21 19 18 19 20 20 20 19 19 19 19 20 21 22 23 23 21 20 19 18 16 16 16 16 15 15 16 18 18 18 18 18 19 20 20 20 21 22 23 24 25 26 27 29 30 31 31 30 29 28 27 28 29 28 26 26 26 25 25 24 25 25 26 27 27 26 25 23 21
29 30 27 25 26 26 24 22 21 20 19 20 22 23 23 23 21 19 19 20 21 20 20 20 20 19 19 19 20 22 25 25 24 23 21 19 18 17 17 17 17 16 17 18 19 19 19 20 21 22 23 23 23 24 25 26 26 28 29 30 32 32 33 34 33 32 30 31 34 33 30 29 28 27 26 25 25 26 27 29 30 30 29 28 27
25 26 24 22 23 23 21 19 19 19 19 21 21 22 21 20 19 19 20 21 21 21 21 21 21 20 19 19 19 21 25 27 26 24 22 20 18 19 19 18 18 18 18 19 20 21 21 22 23 23 24 26 26 26 28 29 30 31 32 33 34 35 35 36 37 36 33 33 37 37 34 32 31 31 28 26 26 26 26 27 28 29 31 31 31
21 22 21 20 20 19 17 16 16 17 18 18 17 17 18 19 20 21 21 22 23 23 23 22 21 20 19 19 18 19 23 26 26 24 23 22 21 21 20 18 18 19 19 20 22 23 24 24 24 25 25 27 27 28 30 32 33 34 36 36 37 38 39 39 40 39 37 37 39 39 37 35 34 35 32 28 27 28 26 26 26 26 27 28 29
18 19 18 18 17 16 15 15 15 15 14 13 14 15 17 18 20 21 22 22 23 23 23 22 21 19 18 17 16 17 21 25 25 24 24 23 22 21 18 18 19 20 21 22 24 25 26 26 26 26 26 28 28 29 31 33 34 35 37 38 39 41 42 42 42 41 39 39 39 39 38 36 35 37 36 31 29 28 26 25 24 23 24 24 24
15 15 14 14 14 14 14 14 14 13 13 13 14 15 15 16 17 18 18 18 18 19 19 19 18 18 16 15 14 16 20 23 23 24 24 22 21 20 19 20 20 20 21 23 25 26 26 26 27 26 27 28 29 31 32 33 35 36 37 39 41 42 43 43 43 41 38 37 36 36 38 37 35 36 35 31 29 28 25 22 21 20 19 19 19
14 14 13 13 13 13 13 13 14 14 14 14 13 13 12 12 13 13 12 12 13 14 15 15 15 15 13 13 13 16 20 21 22 23 23 22 21 21 20 20 20 21 23 24 26 27 26 26 27 27 27 29 30 32 33 34 36 38 39 40 40 40 41 41 40 38 36 35 34 33 35 35 32 32 31 30 29 29 25 20 18 17 15 13 12
14 14 13 13 13 12 12 12 12 12 11 11 10 10 10 11 11 12 11 11 12 12 12 12 12 11 10 11 13 16 19 21 22 23 23 22 22 21 20 20 20 22 24 26 27 27 27 27 28 28 29 29 31 32 34 35 36 37 38 39 37 36 36 37 37 37 35 35 33 31 31 30 29 28 30 30 29 28 25 19 12 9 10 10 9
13 13 13 12 11 10 9 8 8 8 8 9 10 12 12 13 13 14 14 14 14 14 13 12 11 10 9 10 12 15 18 21 22 23 22 21 21 20 21 22 23 24 25 26 27 27 28 28 29 29 29 30 31 33 33 34 34 35 35 35 34 33 33 33 34 35 35 33 30 28 28 29 28 27 28 29 29 27 24 16 7 8 11 12 12
13 12 11 10 9 8 7 7 8 8 9 11 12 14 14 14 15 15 15 16 15 15 13 12 11 10 11 11 13 15 17 19 20 20 20 20 21 22 24 24 25 26 27 27 27 27 28 29 30 30 31 31 32 33 33 33 33 33 33 32 31 30 30 31 30 30 31 30 27 25 27 29 28 26 25 26 29 28 23 15 11 14 16 17 17
Wind_Direction
225 225 227 234 233 224 222 225 219 201 190 175 166 169 170 172 170 162 153 148 151 154 160 165 173 176 176 179 177 185 193 190 187 181 167 154 137 114 106 102 99 98 93 95 106 126 160 192 205 216 231 239 240 249 261 267 272 278 286 289 287 282 277 277 280 297 322 347 3 14 26 39 50 60 65 65 67 68 69 68 66 63 58 51 45
230 228 227 232 238 236 228 226 226 208 192 181 169 168 173 175 173 170 167 164 161 164 168 168 176 181 183 185 177 174 175 180 196 194 178 169 154 126 117 113 106 101 93 88 92 99 105 129 190 222 236 244 245 247 256 264 266 267 273 280 282 282 278 272 271 281 294 315 335 345 356 9 23 39 51 55 57 59 61 61 61 60 60 57 50
235 233 231 233 241 246 242 232 231 217 198 190 180 173 178 178 176 176 177 175 170 172 175 178 188 193 191 198 194 181 176 176 189 195 184 174 162 142 131 123 111 103 96 89 78 81 85 88 89 338 271 269 263 256 256 261 266 268 268 268 267 266 263 265 266 268 273 281 295 310 324 336 351 11 29 37 45 49 52 55 54 53 56 57 56
238 236 235 237 244 252 252 238 232 223 204 198 193 184 181 183 185 185 188 189 185 180 182 191 203 206 202 208 210 203 197 187 188 196 187 177 173 160 146 135 121 113 108 104 92 81 80 82 73 30 337 317 305 287 276 272 272 274 274 262 250 250 248 248 250 254 257 257 264 273 285 300 317 332 349 7 25 31 40 52 55 54 52 52 56
237 236 234 236 248 255 250 233 227 222 209 206 202 192 185 186 189 192 198 202 201 196 197 210 222 223 220 216 215 221 223 210 201 204 198 192 192 178 161 153 136 128 125 115 95 82 78 82 84 56 343 322 320 316 315 309 298 288 283 263 237 243 242 240 239 242 246 249 254 260 269 281 292 306 315 323 338 359 16 36 50 56 55 54 54
230 232 230 232 248 247 228 214 216 215 212 210 206 199 190 188 190 192 198 205 209 211 213 220 227 229 229 228 227 230 233 230 222 218 221 221 218 196 169 168 169 148 140 125 86 70 69 73 75 65 48 359 327 318 324 323 322 315 305 291 252 241 237 237 236 236 239 242 248 253 262 271 280 291 299 305 309 318 335 359 27 48 58 59 58
225 228 230 233 242 232 206 194 200 210 216 214 211 206 199 197 199 198 200 207 213 222 226 225 228 231 232 234 236 238 240 241 242 239 237 234 236 227 197 195 198 184 175 175 154 88 30 37 44 38 69 54 359 318 314 309 312 318 316 309 287 259 240 234 233 235 236 238 243 247 256 264 271 281 288 297 300 302 307 317 339 11 45 60 66
224 225 229 234 230 213 198 192 197 212 217 217 218 213 209 210 213 215 216 218 220 225 230 230 232 236 236 236 236 238 239 242 246 247 246 242 240 240 237 233 226 219 219 221 222 229 248 252 315 327 312 315 315 297 293 292 291 294 300 302 295 276 254 241 234 234 237 240 244 247 254 262 266 273 281 288 292 293 295 298 304 316 2 53 69
227 226 229 232 222 208 203 204 209 220 221 221 222 217 216 217 222 227 227 230 231 229 230 234 238 242 240 238 239 241 240 243 245 241 239 242 242 244 247 248 247 246 246 249 253 253 246 234 242 267 273 278 283 281 285 291 286 281 285 287 285 278 257 245 238 235 237 242 246 249 254 259 263 266 272 278 283 286 286 288 288 284 291 351 70
227 229 231 229 219 213 213 214 221 230 235 232 225 220 219 221 228 233 232 233 234 232 232 235 243 249 246 242 241 244 245 244 243 235 230 237 242 245 248 250 252 255 255 256 261 264 258 245 234 237 257 267 263 263 272 286 287 281 283 284 285 278 251 234 238 242 241 239 242 248 250 252 257 262 269 274 277 279 279 276 273 267 263 253 224
224 227 228 221 216 221 222 220 227 234 241 243 235 226 224 228 232 234 236 235 235 235 236 241 247 249 248 251 250 249 251 249 251 253 244 246 251 253 254 254 255 256 257 257 258 263 261 253 242 234 243 256 257 258 266 278 281 274 272 276 289 290 267 245 249 254 253 245 234 236 246 251 261 268 272 274 272 273 272 268 262 256 252 244 234
214 212 212 209 212 222 224 222 229 232 236 243 240 234 235 239 237 234 236 237 237 235 240 247 248 247 251 257 256 249 249 253 271 293 282 269 266 263 263 261 259 257 258 259 260 263 260 255 251 245 243 247 251 257 262 270 276 271 263 264 277 290 287 283 289 284 276 277 267 250 252 255 265 273 272 268 267 266 264 260 255 248 243 239 235
198 196 197 200 209 218 221 223 229 229 230 232 231 232 238 240 236 232 232 235 238 237 242 246 242 243 246 243 243 242 245 252 269 285 282 277 273 270 269 265 262 259 257 260 261 262 259 254 252 249 247 246 246 249 254 258 261 263 261 259 263 272 275 277 290 300 294 291 291 283 269 261 260 260 256 252 251 258 262 255 250 246 242 235 232
201 201 202 204 207 213 216 219 223 224 225 223 220 227 234 235 233 232 230 232 236 237 236 235 232 234 233 234 253 265 265 266 270 276 265 266 279 285 283 273 266 260 257 261 265 265 260 256 249 241 241 247 248 248 253 258 258 258 259 258 259 262 258 257 266 281 292 297 295 288 277 266 253 241 232 226 225 238 254 253 248 246 243 236 231
206 207 206 200 193 198 209 216 220 221 223 224 222 226 232 235 234 234 234 232 232 233 228 226 228 228 227 246 276 286 289 290 312 327 290 292 327 333 322 298 276 262 256 257 265 271 270 265 256 241 236 242 246 250 252 255 255 253 254 255 257 259 256 254 255 258 263 271 278 278 271 264 252 236 221 215 222 233 244 255 261 258 252 244 236
223 221 218 213 209 210 217 224 230 227 220 221 226 228 230 237 241 240 242 242 239 237 232 226 227 224 220 253 291 301 324 3 5 360 316 312 337 351 354 335 300 271 262 260 265 276 282 281 276 266 257 252 251 253 254 254 250 247 249 251 254 256 257 259 261 262 261 260 259 256 251 250 247 237 231 231 233 238 249 258 260 263 262 256 248
238 240 242 243 244 238 235 235 233 227 212 210 220 226 227 232 238 239 241 245 242 239 235 228 229 227 226 256 320 352 10 356 352 360 335 322 328 342 355 2 348 296 270 266 268 276 282 286 291 292 286 277 267 258 258 262 256 249 249 250 252 253 253 254 259 265 267 265 260 253 248 247 244 239 242 248 248 250 259 265 266 264 262 261 262
234 233 232 234 242 242 242 241 232 223 212 208 214 218 222 222 224 229 234 238 238 240 242 240 243 238 234 262 289 304 325 329 327 325 321 317 316 324 326 343 356 303 273 271 274 280 284 288 289 291 291 285 279 271 272 277 271 259 254 253 253 250 250 253 254 255 260 267 267 263 256 251 247 244 244 250 255 257 258 260 263 264 264 264 265
223 211 199 201 213 221 225 230 224 219 211 207 203 205 214 213 206 210 222 231 233 241 246 246 255 259 251 271 278 279 294 307 309 308 310 308 312 316 307 302 307 294 289 280 278 285 288 293 291 287 285 280 277 275 275 278 277 270 260 256 255 248 245 250 255 254 251 255 261 265 264 259 253 248 245 246 250 253 255 257 262 263 264 265 267
220 210 194 190 195 197 193 191 198 204 203 197 190 190 199 196 185 193 207 217 218 223 226 229 249 261 254 258 267 278 293 304 307 306 309 320 343 351 336 316 311 308 306 294 291 293 290 293 290 283 277 272 268 269 274 274 272 271 265 262 259 252 248 246 249 253 250 247 251 257 263 265 263 258 253 249 245 245 246 248 256 262 262 259 262
215 209 195 189 191 192 177 159 165 175 180 179 174 168 164 157 144 137 142 144 199 231 233 231 239 248 252 256 267 287 302 312 318 315 329 354 2 356 349 358 11 354 322 302 292 286 287 288 282 275 274 271 261 263 279 282 276 267 262 268 269 262 258 252 248 247 247 247 248 252 256 258 261 261 258 256 254 251 250 252 255 258 259 256 255
190 185 184 187 191 198 192 169 161 162 171 183 198 203 149 141 130 99 84 79 75 68 79 214 213 216 216 216 287 317 318 325 334 342 349 346 343 341 347 11 42 55 41 9 335 298 291 279 266 266 275 273 260 260 283 294 288 273 262 270 278 272 265 267 266 258 251 251 254 262 263 258 256 256 256 259 262 262 265 269 267 267 269 269 269
170 167 173 185 193 201 197 185 182 180 189 200 214 223 157 146 139 107 92 94 89 79 79 94 103 102 104 117 345 317 310 318 325 317 322 329 335 343 354 20 54 75 79 74 74 67 53 50 231 281 303 292 271 271 278 280 283 281 273 273 281 282 275 279 291 289 270 262 267 277 277 265 259 256 256 260 265 269 272 274 274 274 276 277 281
175 171 173 179 183 179 163 160 170 175 183 183 186 196 194 189 185 167 156 147 123 108 103 108 111 105 98 257 269 274 285 299 299 299 311 323 335 347 356 22 71 100 105 97 90 79 71 71 68 64 51 32 349 301 286 272 271 275 280 286 291 288 277 281 297 299 285 275 275 280 281 279 270 262 263 265 267 270 272 274 275 274 272 273 277
172 169 166 160 152 142 133 129 130 131 131 130 131 136 143 155 165 161 152 143 140 142 145 148 164 238 243 235 268 283 293 302 303 308 321 336 348 358 5 20 79 124 134 122 102 82 73 74 67 60 53 47 44 25 346 298 279 273 276 286 295 286 271 280 293 288 290 284 281 286 289 295 289 273 273 275 275 275 272 271 272 273 275 274 273
159 156 152 148 145 139 133 129 128 128 127 123 120 118 118 120 125 130 132 135 141 148 154 168 176 173 148 147 272 301 314 323 330 341 358 3 9 24 29 41 85 126 145 138 121 101 73 63 55 43 35 31 28 25 19 1 325 292 278 275 281 282 269 269 280 298 303 294 295 297 292 297 299 287 285 289 293 294 287 279 275 278 284 282 277
147 148 147 146 146 143 139 135 132 132 133 130 124 120 117 116 118 124 131 133 135 142 148 150 145 134 118 103 79 60 34 22 21 23 24 21 23 32 39 61 90 107 126 127 125 119 30 10 351 336 342 348 347 347 349 342 328 317 301 290 290 294 284 275 281 296 294 290 294 295 293 294 294 292 291 292 296 302 303 296 285 282 284 283 280
144 142 141 142 141 139 137 136 134 134 134 132 127 120 116 114 114 117 121 119 117 122 125 120 115 110 102 94 75 66 62 56 48 37 33 29 30 36 43 54 66 76 91 91 75 52 14 355 337 336 337 336 334 329 326 321 311 307 310 314 316 307 296 293 289 282 279 283 286 287 291 292 289 287 285 284 284 286 287 286 283 280 279 278 279
145 141 136 136 135 133 133 132 132 132 131 129 125 119 115 113 111 110 110 108 106 107 104 100 101 100 96 88 79 76 71 61 50 42 40 34 31 35 39 42 43 45 48 43 40 33 16 4 353 349 348 343 339 332 323 313 305 301 299 299 297 288 284 283 277 272 271 274 277 278 282 284 284 283 279 278 280 283 286 287 284 281 279 277 278
150 148 143 137 133 130 129 128 128 129 128 126 122 120 117 114 110 107 104 103 103 103 102 98 94 91 88 84 81 77 70 61 50 42 37 31 27 27 28 28 28 29 29 28 27 20 13 10 0 351 348 346 340 337 333 323 311 304 296 291 288 284 282 280 279 277 274 273 271 271 272 272 273 273 273 274 276 280 284 285 283 281 280 278 277
162 159 155 148 141 136 132 130 129 128 126 124 123 121 119 117 114 109 103 101 99 97 97 99 94 87 82 80 76 67 63 60 53 42 31 20 18 19 19 17 19 21 19 16 16 12 6 4 360 350 344 343 339 334 333 330 323 315 304 296 292 288 286 284 282 281 278 277 275 273 271 269 269 269 269 270 272 276 277 276 275 274 276 276 275
171 171 169 163 157 150 145 143 140 138 136 133 131 129 128 128 126 125 122 117 112 104 96 95 94 93 85 76 71 63 57 57 53 45 29 14 11 14 12 8 11 13 11 6 2 4 2 356 353 348 342 340 336 330 328 328 327 324 315 308 302 297 292 289 286 284 283 284 283 281 280 276 274 273 272 273 274 275 275 274 272 271 272 274 275
178 177 176 174 172 168 161 157 154 151 150 148 147 145 144 145 143 142 143 143 141 138 135 138 144 135 85 315 297 289 290 318 5 14 6 359 358 6 2 359 4 5 2 359 353 354 357 352 346 343 340 338 334 329 325 324 323 322 321 320 314 307 302 298 292 287 284 286 290 292 291 288 285 281 279 279 278 277 276 275 275 274 274 275 276
189 184 179 177 179 181 177 171 165 161 158 157 157 156 156 159 160 159 162 165 167 168 170 190 226 259 288 302 301 291 280 278 284 292 307 319 324 331 338 343 349 350 350 351 347 344 346 346 342 338 337 336 334 331 328 325 324 322 320 319 316 313 311 309 306 298 291 288 290 294 297 298 298 295 293 291 289 287 284 281 280 279 276 274 273
205 201 195 188 183 184 184 179 172 168 163 160 159 159 161 166 170 173 176 176 176 176 174 186 214 257 291 306 311 306 296 289 289 292 296 302 307 308 315 324 329 333 337 340 340 336 336 338 338 334 333 335 334 332 329 327 325 320 317 316 314 312 309 307 305 301 295 290 289 290 291 293 295 297 298 298 297 295 291 288 284 282 279 274 271
217 215 211 205 198 193 190 187 183 179 178 178 178 176 178 192 210 216 213 209 203 196 189 196 223 257 283 298 307 309 305 298 295 298 302 303 305 302 300 302 308 316 325 330 333 330 328 329 331 330 330 331 332 329 326 323 321 318 317 315 312 308 305 303 302 300 297 292 289 286 286 286 287 290 293 294 296 295 293 290 286 282 278 274 271
221 220 219 217 212 205 199 200 206 207 209 215 216 216 229 251 263 265 258 254 259 256 252 255 264 273 281 289 296 299 301 301 295 295 299 301 300 296 293 294 298 308 318 324 326 325 323 322 324 325 325 325 326 326 324 321 319 318 316 316 315 311 307 304 300 298 296 293 289 285 282 281 280 282 284 287 291 291 289 286 284 282 279 274 270
225 224 223 222 220 215 209 209 219 225 232 246 257 264 274 285 290 287 272 260 260 263 265 268 272 277 283 286 287 288 292 296 292 288 292 296 295 293 293 293 295 302 310 316 320 320 319 318 319 320 320 320 322 323 323 324 324 322 318 316 316 314 311 307 302 298 296 294 293 291 289 285 283 282 283 286 288 288 284 280 279 279 278 275 271
230 227 226 227 225 222 220 218 221 228 239 254 267 274 280 294 300 294 281 267 261 261 267 269 268 272 279 282 283 283 286 288 287 285 287 291 292 291 290 291 293 297 303 312 317 317 315 315 316 316 318 319 319 319 321 323 323 322 320 317 315 314 314 314 312 308 304 299 295 293 292 290 288 286 286 286 287 284 279 275 274 273 274 273 271
234 233 235 239 237 231 231 233 238 244 249 256 264 271 279 295 303 298 287 278 273 273 277 279 273 270 273 276 278 279 280 282 281 280 282 285 288 290 290 291 293 295 301 309 314 315 315 314 314 314 314 315 314 315 316 317 317 319 324 325 322 319 317 317 317 315 311 307 302 297 294 291 287 285 285 283 281 279 274 270 270 270 270 271 270
236 237 238 245 246 237 234 243 251 251 252 259 267 268 272 286 295 292 287 286 287 285 284 284 280 275 273 273 274 275 276 277 277 277 278 279 283 287 289 291 293 294 302 309 312 313 314 314 312 311 310 309 311 315 317 321 323 324 326 326 324 321 317 315 314 314 313 311 306 302 300 298 293 289 287 284 281 278 273 270 269 269 267 268 269
231 232 235 244 246 238 237 246 250 248 251 259 262 259 264 277 283 281 280 283 284 283 282 282 281 278 275 274 274 273 273 273 273 274 274 274 278 283 286 290 291 292 300 307 310 312 313 314 314 312 311 312 315 319 321 323 326 326 325 324 323 322 319 315 312 312 315 316 310 303 301 304 301 295 291 289 286 281 278 275 273 272 270 268 268
227 229 237 245 242 237 243 252 252 251 254 256 256 257 264 272 274 273 274 276 276 278 280 281 282 280 276 274 272 270 268 268 269 270 269 268 271 276 282 286 286 288 298 307 311 312 313 313 314 315 317 318 319 321 321 322 323 324 325 324 323 322 321 320 317 314 316 318 314 307 304 305 306 300 295 293 291 286 282 280 278 276 274 272 271
230 234 241 241 236 239 249 254 251 251 254 255 257 262 266 269 270 273 278 280 282 283 282 282 283 282 280 276 272 268 265 264 265 266 263 260 263 271 278 282 283 289 299 306 308 309 311 311 313 315 317 319 320 321 321 322 323 323 323 323 323 322 321 321 318 316 316 318 315 310 306 307 309 305 300 299 298 293 289 286 282 279 277 275 274
233 234 235 236 236 241 246 247 246 248 252 256 260 265 268 270 274 279 282 285 287 287 285 284 282 282 282 278 275 272 264 258 258 261 259 256 260 270 276 278 282 290 297 302 305 307 309 310 312 314 315 316 318 320 320 320 321 321 321 321 321 320 319 318 316 315 317 317 315 311 306 306 310 309 304 303 302 299 296 293 288 284 281 279 277
222 223 225 229 233 235 237 240 243 246 250 255 260 265 271 275 279 283 286 288 289 288 288 286 284 284 283 279 280 277 263 255 256 257 255 255 262 270 274 275 280 287 292 298 303 305 306 308 309 310 311 312 314 315 316 317 317 317 318 317 317 317 315 314 313 313 314 314 313 310 306 305 309 310 308 306 303 302 303 301 297 293 289 286 284
208 212 217 222 224 226 230 235 240 246 252 258 265 272 279 284 289 292 295 295 294 294 293 291 289 288 285 281 281 275 263 257 255 252 250 253 261 266 269 273 279 285 291 296 300 302 302 303 303 304 305 306 308 310 311 312 312 312 312 312 312 311 310 309 309 310 311 311 311 310 306 306 308 308 309 309 305 303 305 304 303 302 299 295 292
204 208 211 215 219 225 232 240 248 255 260 266 274 283 290 295 300 306 310 309 307 305 303 299 295 292 289 283 274 264 258 256 251 247 248 254 261 265 268 273 281 288 292 295 298 298 297 297 297 297 298 300 302 304 307 308 309 309 308 308 308 308 307 307 308 309 310 309 310 309 308 308 309 308 308 309 307 306 307 307 308 310 306 300 298
213 217 221 226 231 236 242 247 254 259 265 274 285 297 304 305 309 317 322 324 325 323 320 315 309 304 299 290 276 263 256 252 248 248 252 259 264 267 269 276 283 289 292 294 295 294 293 293 293 293 294 296 299 301 304 305 306 307 307 307 307 307 306 306 308 309 309 308 309 310 309 309 311 310 308 307 306 306 309 313 314 308 292 281 281
224 227 230 233 235 238 242 249 258 268 278 289 298 306 311 313 316 321 324 328 333 332 329 326 321 318 310 296 280 266 257 252 251 253 257 262 265 268 271 278 285 289 290 291 290 289 288 288 288 289 291 293 296 298 300 301 303 304 304 305 305 305 304 305 307 307 307 307 309 311 309 308 311 312 310 308 305 304 308 312 290 252 260 266 267
224 225 227 228 232 240 250 260 271 279 285 292 297 302 307 311 315 319 323 328 333 333 329 322 317 313 304 291 279 267 259 256 257 259 262 265 269 272 277 284 289 289 288 286 284 283 282 283 284 286 289 292 294 296 299 301 302 303 302 302 303 303 303 304 305 306 305 305 308 311 310 308 311 314 315 314 308 304 306 304 274 252 256 264 267